Dewpoint
63 56 58 51 51 47 33 37 25 27 25 21 22 22 19 19 22 17 14 13 8 15 43 56 56 56 55 57 61 63 63 59 60 47 48 61 67 68 68 70 71 72 73 73 73 73 74 74 74 74 74 73 73 73 73 73 73 73 73 72 72 72 72 72 72 72 72 72 72 72 72 72 71 71 71 71 71 71 71 71 71 70 70 69 68 69 69 69 68 68 68 67 68 68 69 70 70
53 52 51 49 45 35 33 33 25 24 21 18 16 19 19 21 25 16 14 12 9 32 49 55 57 59 61 63 63 61 62 63 63 62 64 66 68 68 69 70 71 72 73 73 73 73 73 73 73 73 73 73 73 73 73 73 73 73 73 73 72 72 72 72 72 72 72 72 72 72 72 72 71 71 71 71 70 71 70 70 68 68 69 68 68 69 69 69 69 67 66 66 67 68 68 68 69
53 52 48 43 42 36 36 28 24 24 20 14 12 16 18 14 14 16 17 17 16 31 39 53 56 57 57 58 58 58 60 63 63 64 64 66 65 66 69 70 71 72 73 72 72 73 73 73 73 73 73 73 73 73 73 73 73 73 73 73 73 72 72 72 72 72 72 72 72 71 71 71 71 71 71 71 71 71 70 70 68 67 67 67 67 68 69 69 68 67 66 67 67 67 68 69 69
54 51 47 45 35 36 36 32 24 21 19 18 17 18 18 17 17 17 16 16 31 40 51 55 57 59 58 58 60 63 63 63 63 63 63 64 64 66 69 70 72 72 72 72 72 72 73 73 73 73 73 73 73 73 73 73 73 73 73 73 73 72 72 72 72 72 72 72 71 71 71 71 71 71 71 71 71 72 71 70 69 68 68 67 68 68 68 68 68 67 66 67 67 68 68 69 69
53 54 47 46 33 35 37 35 28 21 18 19 16 18 23 19 17 17 17 19 30 41 55 56 57 60 61 59 59 59 62 64 64 65 64 64 66 67 69 70 71 71 72 72 72 72 73 73 73 73 73 73 73 73 73 73 73 73 73 73 73 73 72 72 71 71 72 72 72 71 71 71 71 70 70 71 72 71 70 71 72 71 70 70 69 70 68 69 69 68 67 67 67 68 69 68 68
47 42 48 46 37 30 25 26 27 26 20 21 19 19 21 22 24 23 15 10 30 46 51 54 56 58 60 63 64 62 64 63 64 64 64 64 66 68 68 69 70 71 71 72 72 72 72 73 73 73 73 73 73 73 73 73 73 73 73 73 73 73 72 72 72 71 71 71 72 71 71 70 70 70 70 70 71 70 70 70 71 70 70 71 71 70 70 69 68 67 67 67 68 68 68 67 67
40 36 40 41 37 30 25 28 26 26 27 27 26 26 28 28 27 24 21 16 33 55 58 58 60 58 58 62 65 66 66 66 65 64 65 65 66 66 67 68 69 70 71 72 72 72 73 72 72 73 73 73 74 73 73 73 73 73 73 73 73 73 72 72 72 72 72 72 71 71 71 71 71 70 70 70 70 70 70 70 70 70 70 70 70 70 70 69 69 68 67 68 68 68 67 67 68
47 33 32 30 27 26 25 24 24 27 28 28 28 27 26 24 22 18 15 14 19 48 55 57 58 61 61 64 62 66 66 66 66 66 65 65 65 65 66 67 68 70 71 72 72 72 73 72 72 72 73 73 73 73 73 73 73 73 73 73 73 72 72 72 72 72 72 72 71 71 71 71 71 70 70 70 70 70 70 70 70 70 70 70 70 70 70 69 69 68 68 69 68 68 67 68 68
33 29 32 21 23 25 20 23 23 24 25 27 27 30 42 32 27 19 8 13 25 54 57 58 58 59 62 63 64 66 66 66 66 67 65 63 64 65 66 67 68 69 71 72 72 73 72 72 72 72 72 72 73 73 73 73 73 73 73 73 72 72 72 72 72 72 72 72 71 71 71 71 71 70 70 70 70 70 69 69 70 70 70 70 70 70 69 69 69 69 68 68 68 68 68 68 68
30 25 24 24 19 19 14 13 14 16 21 21 22 22 22 20 16 11 7 26 48 57 59 60 60 61 63 62 64 65 66 67 66 64 64 64 64 65 67 68 69 70 71 72 72 72 72 73 72 72 72 73 73 73 73 73 73 73 73 73 72 72 72 72 72 72 72 72 71 71 71 71 71 71 70 70 70 69 69 69 69 69 70 70 70 70 69 69 69 68 68 67 68 68 67 68 68
27 24 25 26 25 19 17 15 14 14 13 12 11 12 15 17 14 6 7 12 56 58 59 61 60 61 61 62 64 67 68 67 66 64 65 64 65 67 67 68 69 70 71 71 72 72 72 72 73 72 72 72 72 72 72 72 73 73 73 72 72 72 72 72 72 72 72 71 71 71 71 71 71 71 71 70 70 70 69 69 69 69 69 69 70 70 69 69 68 68 68 68 68 68 68 68 68
27 27 24 20 22 20 18 17 16 16 17 16 14 12 11 11 8 8 6 22 57 57 57 59 59 62 61 62 64 68 67 67 67 68 66 66 67 67 68 68 69 70 71 71 72 72 72 72 72 73 72 72 72 72 72 72 72 72 72 72 72 72 72 72 72 72 71 71 71 71 71 71 71 71 71 71 70 70 69 70 70 70 70 70 70 69 69 69 68 69 69 68 68 67 68 68 68
28 30 18 19 21 21 20 19 19 26 18 9 7 5 9 6 5 7 8 7 15 38 43 59 61 61 59 61 65 67 66 67 68 69 67 67 68 68 69 69 70 70 71 71 71 71 71 72 72 72 72 72 72 72 72 72 72 72 72 72 72 72 72 72 72 72 71 71 71 71 71 71 71 71 71 71 70 70 70 70 70 70 70 70 69 69 69 68 69 69 69 68 68 67 67 68 68
27 24 19 19 19 14 12 11 10 6 6 7 3 11 16 11 13 9 23 49 53 52 57 60 61 62 61 63 64 65 66 67 68 68 68 68 68 68 68 69 69 70 70 70 70 71 71 71 71 71 71 71 71 72 72 72 72 72 72 72 72 72 72 72 71 71 71 71 71 71 71 71 71 71 71 71 70 70 70 70 70 70 69 69 69 69 69 68 68 68 68 68 68 68 68 68 68
26 23 19 23 15 16 13 12 12 11 11 12 9 13 13 18 17 22 52 53 57 61 61 63 62 59 59 61 61 64 66 67 68 68 68 68 68 68 68 68 69 69 70 70 71 71 71 71 71 71 71 71 71 71 71 72 72 72 72 72 71 71 71 72 71 71 71 71 71 71 71 71 71 71 71 70 70 70 70 70 70 69 69 69 69 69 69 68 68 68 68 68 68 67 68 68 68
25 17 21 23 16 15 14 13 14 10 9 5 8 14 14 11 20 24 44 52 54 59 57 54 59 57 61 62 63 65 66 67 68 68 68 68 68 67 67 68 68 68 69 69 70 71 71 71 70 70 70 70 70 70 71 70 70 72 71 72 71 71 71 71 71 71 71 71 71 70 71 70 70 70 70 70 70 70 70 69 69 69 69 69 69 69 68 68 68 68 67 68 68 67 67 67 67
20 19 14 15 11 11 11 11 11 10 10 10 9 11 10 16 52 55 57 57 57 60 62 62 60 61 61 61 65 66 66 67 68 68 67 67 66 66 66 67 67 67 68 68 69 70 70 70 70 70 70 70 70 70 70 69 69 71 71 71 71 71 71 71 71 71 71 70 70 70 70 70 70 69 70 69 70 69 70 70 69 69 69 69 69 68 68 68 68 68 68 68 68 67 67 67 68
21 16 12 14 11 10 11 11 12 11 10 11 10 9 13 15 47 54 58 60 60 61 61 63 63 63 64 65 66 66 67 67 67 66 66 66 66 65 65 66 66 66 67 68 69 70 70 70 70 69 69 69 70 70 69 70 70 71 70 70 71 71 70 70 70 70 70 69 70 70 70 70 69 69 69 70 69 70 69 70 69 69 69 69 69 68 68 68 68 68 68 67 68 67 68 63 65
18 18 14 8 10 10 11 13 11 10 10 10 8 8 11 9 20 36 57 58 59 60 62 63 63 64 65 65 66 66 66 66 66 66 65 65 65 64 64 65 66 67 67 67 68 69 69 69 69 69 69 69 69 69 69 69 70 70 70 69 70 70 70 70 70 69 68 68 69 69 70 69 69 70 69 70 70 69 69 70 69 69 69 68 68 68 68 68 68 68 68 67 68 67 65 63 63
14 14 12 10 10 11 12 13 10 15 10 10 9 10 10 9 18 48 56 58 59 60 60 61 62 63 64 65 65 65 66 65 65 65 65 65 65 65 64 64 65 66 67 67 68 68 69 69 69 69 68 68 68 67 68 68 69 68 69 69 69 69 69 69 68 68 68 68 68 68 69 69 68 68 70 70 70 69 69 70 69 69 68 68 68 68 67 67 68 67 67 68 67 67 63 62 63
15 12 10 10 12 11 12 13 14 12 11 11 8 11 9 8 13 53 57 57 58 60 61 61 61 62 64 64 65 65 65 65 65 64 64 65 65 65 65 64 65 66 66 67 67 68 68 67 68 68 68 67 67 67 67 67 67 67 67 68 68 68 67 67 67 67 67 67 68 68 68 68 67 67 68 69 68 68 68 68 68 67 67 67 68 64 64 64 64 62 61 65 62 63 62 61 61
12 10 10 10 10 10 11 12 13 13 13 10 8 9 9 10 14 52 53 54 56 59 61 61 62 63 64 64 64 65 65 64 64 64 64 64 64 65 65 65 65 65 66 66 67 67 66 66 68 68 67 67 67 67 67 67 67 67 67 67 67 67 67 67 67 67 67 67 68 68 68 67 66 67 67 67 67 67 67 66 66 66 65 66 67 64 64 63 63 63 62 62 62 62 62 61 61
15 13 9 9 11 11 12 12 13 12 11 9 9 10 12 9 10 14 24 50 55 60 62 63 63 64 64 65 65 64 64 64 64 64 64 64 64 64 64 65 64 65 65 66 66 66 66 67 67 67 67 67 67 68 67 67 66 66 66 66 65 66 66 66 66 66 67 67 68 68 67 66 66 66 66 66 66 66 65 66 65 65 65 65 66 64 63 64 63 62 63 63 62 62 62 62 62
13 12 8 6 6 8 11 12 12 12 10 9 11 11 11 13 6 18 40 42 52 59 63 64 64 65 65 64 64 64 64 64 63 65 65 64 62 62 63 63 64 64 65 65 66 66 66 67 67 66 67 67 67 67 66 66 66 66 66 67 67 68 67 66 66 67 67 67 68 68 67 66 65 66 66 65 65 65 65 65 65 64 64 64 65 64 63 64 64 63 63 63 62 61 60 60 61
19 15 14 12 10 7 7 10 11 10 9 9 10 8 8 9 8 9 39 49 58 61 62 64 65 65 64 64 64 63 63 63 64 64 64 63 63 63 64 65 66 65 65 65 66 67 67 67 67 67 66 65 66 66 65 65 65 65 65 66 66 69 66 66 66 67 67 67 67 67 68 66 66 66 65 65 64 64 65 65 65 64 65 64 65 64 64 64 63 62 62 62 62 61 61 61 62
17 17 15 11 9 7 5 7 9 9 9 8 9 6 7 7 11 8 39 52 58 60 61 63 64 64 64 64 63 63 63 63 63 63 63 63 63 62 62 63 63 65 66 65 65 66 67 67 67 67 66 65 66 66 65 64 65 65 65 65 66 67 65 65 66 66 66 66 66 67 67 66 66 65 65 64 64 63 63 64 65 64 64 64 64 63 63 63 63 62 63 62 63 61 61 63 62
13 11 9 6 5 5 6 5 6 8 10 11 9 8 7 7 7 3 23 51 56 57 59 62 63 64 64 64 63 63 63 63 62 62 62 62 62 62 62 62 63 63 63 62 65 65 66 67 67 67 66 66 66 65 64 64 65 64 65 65 66 65 65 66 66 65 66 66 66 67 67 67 65 64 64 63 63 63 63 63 63 64 63 63 63 64 65 64 63 63 63 63 62 61 62 62 63
10 8 6 5 5 5 4 4 7 8 6 9 8 7 9 8 7 4 6 48 54 55 58 61 62 63 64 64 63 62 63 62 61 61 60 61 61 61 61 62 62 62 63 62 64 65 66 65 66 66 66 66 65 64 64 64 64 64 65 65 65 65 65 65 66 65 67 66 66 66 67 66 65 64 64 64 63 62 62 63 63 63 63 63 63 63 63 64 64 64 65 64 63 62 62 62 62
11 14 6 5 5 5 6 3 3 7 6 11 10 10 8 8 4 5 6 46 53 56 57 59 61 62 63 63 62 62 62 61 61 61 61 61 62 62 61 62 62 63 64 64 64 65 65 65 64 65 65 66 64 64 64 64 64 64 64 65 65 65 65 65 65 65 66 65 66 66 66 66 65 64 64 64 64 63 62 62 62 63 64 64 64 64 64 64 64 64 64 64 63 62 62 62 63
13 12 8 4 5 5 6 7 6 6 9 9 9 7 9 7 6 3 10 45 48 55 56 59 61 62 62 62 61 61 61 61 61 61 61 62 61 61 61 62 63 64 63 64 64 64 65 65 65 65 65 64 64 64 64 64 64 64 64 64 65 65 65 65 66 65 66 65 66 66 66 66 65 65 64 63 63 63 63 62 63 65 65 64 63 63 63 63 63 63 63 63 64 62 61 61 62
12 11 9 10 7 7 8 11 10 8 10 9 7 8 8 7 6 5 5 36 43 52 56 59 60 61 61 60 60 60 60 60 60 61 61 61 62 62 61 62 63 64 64 64 64 64 65 65 65 64 64 64 65 64 64 63 64 64 64 64 64 64 65 64 65 65 64 65 66 66 65 66 65 65 64 63 63 62 62 63 64 64 64 63 63 62 63 63 63 63 62 62 62 62 62 62 62
12 10 11 10 7 8 7 9 10 6 7 11 6 13 7 7 5 4 4 20 43 53 56 59 60 60 60 59 59 59 59 59 60 61 61 61 62 61 62 63 64 64 64 64 65 65 65 64 65 64 64 64 64 64 64 63 64 64 64 65 64 64 64 64 64 65 65 65 66 65 66 66 65 65 64 64 63 62 63 64 64 64 64 64 63 63 62 62 62 62 62 62 61 61 62 62 62
16 11 20 13 12 7 5 5 7 7 6 8 5 6 7 4 4 5 4 20 45 54 57 59 60 60 59 58 58 58 58 58 59 60 61 61 61 61 62 63 63 63 64 64 64 64 64 64 64 64 64 64 63 64 64 63 63 63 64 64 64 64 64 64 64 65 66 66 65 65 65 65 65 65 65 64 64 64 64 64 64 64 64 64 63 62 62 62 62 63 62 62 61 61 62 62 62
14 18 15 19 12 12 6 8 6 7 5 4 5 4 8 12 9 3 4 33 49 55 57 59 60 60 59 57 57 57 57 58 59 60 61 61 61 62 63 64 63 63 64 64 64 64 64 64 63 63 64 64 64 63 63 63 63 63 64 64 65 65 65 64 64 65 65 65 65 65 65 65 64 65 66 65 64 64 64 64 64 64 64 64 63 62 62 62 62 62 61 61 62 62 61 61 62
15 16 15 16 15 12 8 6 5 7 6 5 7 6 5 4 4 4 2 35 51 54 56 58 59 59 58 57 57 57 58 58 58 59 61 61 61 62 62 62 62 63 63 63 64 64 63 63 63 64 64 64 64 64 64 64 64 63 64 65 65 65 65 64 65 65 65 65 65 64 65 65 65 64 65 65 64 63 63 63 63 63 63 63 63 62 62 62 62 61 61 61 62 62 61 61 61
13 14 17 19 16 13 8 7 7 6 6 2 4 6 3 4 6 6 10 36 49 52 56 58 59 58 57 57 57 57 58 58 58 60 61 62 62 62 62 62 62 62 63 63 63 63 63 63 63 64 64 64 64 64 64 64 64 64 65 64 64 64 63 65 64 64 65 64 65 65 65 65 65 65 64 64 64 63 62 62 62 63 63 63 62 61 61 62 62 60 60 61 61 62 62 61 61
10 10 11 10 11 11 10 8 7 7 6 5 4 7 5 5 6 9 16 44 51 53 56 57 58 58 57 57 57 57 57 57 59 60 62 62 62 62 61 61 61 62 62 62 63 62 63 63 63 63 64 64 63 63 63 64 64 64 62 63 63 62 63 63 64 63 64 64 65 66 66 65 65 65 65 64 63 64 62 62 62 62 63 63 62 61 61 61 61 60 61 60 60 60 60 61 61
11 11 11 11 12 11 11 9 8 9 18 8 7 6 5 6 8 10 40 51 52 54 56 56 57 58 57 57 56 56 57 58 59 61 62 62 61 61 61 61 62 61 62 62 62 63 63 64 64 64 64 64 63 63 64 64 64 64 63 62 60 60 61 62 61 61 63 65 65 65 65 65 64 64 65 64 64 63 62 62 62 62 62 63 62 62 61 63 62 62 61 60 60 59 60 62 62
21 14 12 12 11 12 12 12 17 12 20 12 9 6 5 6 8 10 45 50 52 54 56 56 57 57 57 56 56 56 57 58 60 61 61 61 61 60 61 61 62 62 62 62 63 63 64 64 64 64 64 64 63 63 63 63 61 61 60 59 61 60 61 62 62 63 64 64 64 65 65 65 65 64 64 64 63 63 62 63 63 62 63 63 62 61 61 62 62 62 60 60 59 59 60 61 60
22 19 17 14 14 13 11 21 20 21 21 19 14 8 8 9 11 11 33 49 53 54 56 57 57 57 56 56 55 56 57 58 59 60 60 60 60 60 60 61 61 62 62 62 63 63 64 64 64 63 63 63 63 63 63 61 61 59 58 58 58 59 59 62 62 62 63 64 64 64 64 64 64 64 64 64 63 62 62 62 62 63 63 63 62 61 61 61 61 61 60 59 59 59 57 58 60
25 25 18 15 14 13 12 17 24 26 22 31 16 16 9 18 10 10 29 49 53 54 56 57 57 57 56 55 55 56 57 58 59 59 60 60 59 59 60 60 61 61 61 62 63 63 64 64 63 63 62 62 62 62 61 60 60 59 59 59 59 59 60 60 60 59 61 63 63 62 63 63 63 63 63 63 63 61 61 61 62 62 62 61 62 61 61 62 61 62 60 59 59 59 57 57 58
20 24 21 17 15 14 14 24 21 20 17 29 7 5 10 23 23 10 27 50 52 55 55 55 56 55 54 54 54 56 57 59 59 60 60 60 59 59 59 60 60 60 61 62 63 63 63 63 62 61 60 60 61 60 59 59 58 57 56 56 57 57 57 58 58 59 60 61 62 61 62 63 62 62 62 63 63 62 61 61 61 62 62 62 62 61 62 62 62 62 61 60 59 59 59 57 56
19 21 24 20 17 19 23 21 22 17 12 21 24 9 8 24 15 17 33 49 50 53 54 55 55 54 54 53 53 55 57 58 59 60 60 60 59 58 58 59 60 60 61 62 62 62 62 62 60 60 60 60 59 59 59 58 56 56 56 56 56 56 55 55 56 59 60 59 61 61 61 61 62 62 61 61 61 61 61 61 61 62 62 62 62 62 62 61 62 62 62 60 60 60 58 57 57
18 26 25 20 18 18 22 23 21 18 27 27 28 18 13 11 18 30 25 48 49 51 52 54 54 54 53 52 53 56 58 58 59 60 60 60 59 58 58 59 59 60 60 61 61 61 61 60 60 60 60 59 58 58 58 56 55 55 55 56 56 54 54 54 56 57 57 58 59 59 60 60 60 60 60 59 60 61 61 61 61 61 62 62 62 62 62 61 61 61 61 60 61 60 59 58 57
17 21 22 18 17 20 18 15 20 19 18 11 17 21 13 16 24 28 37 46 48 49 51 54 54 53 52 52 54 56 58 59 59 60 60 60 59 59 59 59 59 60 60 60 61 61 60 60 60 60 59 59 58 58 58 57 56 56 57 54 53 53 54 55 56 57 57 57 57 56 57 56 57 58 59 60 59 60 61 60 60 60 60 61 63 61 61 62 61 60 60 60 60 60 58 58 58
18 22 21 19 19 16 19 15 12 23 14 13 15 27 12 16 27 32 35 44 47 47 51 53 53 53 52 52 54 57 58 59 60 60 61 60 60 59 59 59 59 60 60 61 60 60 60 59 60 60 59 59 59 58 58 58 57 57 54 52 52 52 53 52 53 54 55 55 55 55 55 56 56 56 57 58 58 58 58 58 59 59 59 60 61 60 60 60 60 60 60 60 60 60 59 59 59
24 17 15 14 13 16 16 17 15 17 12 13 21 31 18 13 25 31 34 32 46 47 50 52 53 52 52 52 54 57 58 59 60 60 61 60 60 60 60 59 59 60 60 60 60 60 60 60 59 59 59 59 59 59 58 57 56 55 52 52 52 51 51 52 52 52 53 55 55 54 55 55 56 56 56 56 57 57 58 58 56 57 58 61 59 59 59 60 60 60 60 60 59 59 59 58 57
12 14 14 14 17 17 14 18 19 10 11 20 27 29 23 12 21 33 37 40 42 47 50 51 52 51 52 53 54 57 58 59 60 60 60 61 61 60 60 60 60 60 60 60 60 60 60 60 60 60 59 59 58 58 57 57 54 53 52 52 52 51 51 51 51 51 52 54 55 55 55 55 55 55 55 55 56 57 57 57 58 58 59 59 59 59 59 60 60 61 60 60 60 59 59 59 58
10 15 16 10 13 11 8 8 5 6 9 16 26 22 18 16 26 35 39 44 41 47 50 51 51 50 52 53 54 56 58 59 59 60 60 61 61 61 60 60 60 60 60 60 60 60 59 59 60 60 59 58 58 57 57 55 53 53 53 53 53 52 52 52 52 51 51 53 55 55 54 54 54 55 55 56 55 56 56 55 56 57 58 59 59 59 59 60 60 60 60 60 60 59 59 59 58
8 9 15 8 5 5 3 13 11 11 13 19 19 24 24 29 35 38 40 43 42 47 50 51 50 50 53 53 54 56 57 59 59 60 60 61 61 61 60 60 60 60 60 60 59 59 59 60 59 59 58 57 58 57 56 54 53 53 54 54 53 53 52 52 52 52 52 54 55 55 54 54 54 54 54 55 56 56 56 56 55 55 56 57 59 59 60 59 59 60 59 58 58 57 57 57 56
6 9 9 14 16 12 3 9 3 6 7 17 26 16 16 27 34 41 43 48 48 49 50 50 50 51 54 54 54 56 58 58 59 59 60 60 61 61 61 61 61 61 60 60 59 59 59 59 59 58 58 58 58 57 57 55 55 54 54 54 53 53 53 53 53 53 53 54 54 55 55 55 55 55 56 55 56 56 56 55 55 55 56 57 58 58 59 58 58 59 58 57 56 55 54 53 51
12 10 11 16 14 22 9 17 18 17 14 14 24 19 27 34 40 44 46 49 50 50 51 52 53 54 55 55 55 56 57 58 58 58 59 60 61 61 61 61 61 61 59 59 59 59 59 59 58 58 59 59 58 57 57 56 55 55 54 54 53 54 55 54 54 54 54 54 55 55 55 55 55 55 55 55 55 55 55 54 52 52 54 56 57 56 56 57 57 56 54 52 50 52 51 50 50
22 11 11 10 17 18 19 22 25 19 22 14 22 30 34 37 36 40 46 47 48 51 52 52 53 54 55 55 55 56 57 57 57 58 58 59 60 61 61 61 61 60 59 59 59 60 59 59 59 60 60 59 58 58 58 57 56 54 54 54 55 54 53 53 53 53 55 56 56 55 55 55 54 53 54 54 54 54 52 50 50 51 53 54 53 54 54 54 53 52 51 50 50 50 48 47 48
23 12 13 17 21 26 18 12 19 14 11 15 26 28 29 26 27 39 45 46 48 47 49 50 51 53 54 55 55 56 56 56 57 58 58 59 60 60 60 60 60 60 60 60 60 60 60 60 60 59 59 58 58 59 58 58 56 55 55 55 54 52 52 53 55 56 55 54 54 54 54 53 52 53 54 54 54 53 54 54 51 52 51 51 52 51 50 50 50 49 49 49 50 51 51 50 50
9 11 23 15 11 6 24 20 10 9 8 15 25 28 28 29 30 38 43 44 46 47 48 49 49 51 53 54 55 56 57 57 57 57 57 57 58 58 59 59 60 59 60 60 60 59 59 59 59 59 59 58 58 59 59 58 57 57 56 55 54 54 54 55 54 54 53 53 53 53 53 53 53 53 53 52 52 51 50 50 49 50 51 50 50 50 49 49 48 48 49 50 50 50 49 49 49
15 20 18 22 22 21 14 15 17 20 18 15 21 26 21 34 34 39 41 43 45 45 46 48 50 50 51 52 54 55 55 55 56 56 56 56 56 57 58 58 59 58 59 59 59 58 58 58 59 59 58 58 58 59 58 59 59 58 56 56 55 54 55 54 53 52 52 52 52 52 52 51 50 50 50 50 50 49 49 48 48 49 49 48 47 48 48 48 49 49 49 49 49 51 50 50 49
20 12 17 15 28 34 26 26 17 18 23 18 20 19 27 34 39 40 42 44 44 45 47 49 51 51 51 51 52 54 55 55 55 55 55 55 55 55 56 57 59 59 58 58 58 58 58 58 58 58 58 57 58 58 58 59 59 56 55 54 54 55 54 54 53 52 52 52 51 51 51 50 50 48 49 49 49 49 49 49 48 49 47 46 46 46 47 48 48 48 48 49 49 50 49 48 49
19 17 15 18 22 16 13 18 28 28 25 25 24 19 28 38 44 45 45 47 47 48 49 50 51 51 51 51 51 53 53 53 55 56 56 55 55 56 57 58 58 58 57 57 58 58 57 57 57 57 57 57 58 58 58 58 58 55 54 54 54 54 54 53 53 52 51 51 50 50 50 49 48 49 48 48 48 49 49 48 48 49 48 47 47 46 48 48 47 47 47 49 48 49 49 48 47